Other Public Products
Issued by NWS Grand Forks, ND

Home | Current Version | Previous Version | Graphics & Text | Print | Product List | Glossary On
Versions: 1 2 3 4 5 6 7 8 9 10 11 12 13 14 15 16 17 18 19 20 21 22 23 24 25 26 27 28 29 30 31 32 33 34 35 36 37 38 39 40 41 42 43 44 45 46 47 48 49 50
000
FPUS83 KFGF 272231
OPUFGF
PRAIRIE TO PINES WEATHER ROUNDUP
NATIONAL WEATHER SERVICE EASTERN NORTH DAKOTA/GRAND FORKS ND
500 PM CDT MON JUL 27 2015

 **SATELLITE DATA USED TO AUGMENT SKY COVER AT AUTOMATED STATIONS**
 *****  WEATHER ACROSS EASTERN NORTH DAKOTA  *****

CITY           SKY/WX    TMP DP  RH WIND       PRES   REMARKS
GRAND FORKS    PTSUNNY   86  72  62 SE18      29.78F HX  92
GRAND FORKS AF PTSUNNY   85  72  66 SE15      29.79F HX  90
GRAND CITY NWS   N/A     84 N/A N/A SE20        N/A
BUXTON         NOT AVBL
DEVILS LAKE    MOSUNNY   84  68  58 SE20G29   29.74F
FARGO          MOSUNNY   90  69  50 SE21G26   29.79F HX  94
WAHPETON ARPT  CLEAR     88  66  48 SE15G22   29.80F HX  90
$$

 *****  WEATHER ACROSS CENTRAL AND WESTERN NORTH DAKOTA  *****

CITY           SKY/WX    TMP DP  RH WIND       PRES   REMARKS
JAMESTOWN      MOSUNNY   87  73  62 SE18G28   29.74F HX  94
BISMARCK       SUNNY     92  66  42 S25G32    29.66F HX  94
MINOT          MOSUNNY   91  65  41 SE20G30   29.65F HX  93
MINOT AFB      MOSUNNY   90  71  53 SE13G23   29.65F HX  97
GARRISON         N/A     85  72  65 S23       29.64F HX  91
WILLISTON      PTSUNNY   88  62  41 SE12G17   29.62F
DICKINSON      PTSUNNY   87  66  49 SE20G28   29.62F
HETTINGER      SUNNY     92  61  35 SE21G28   29.66F HX  92
$$

 *****  OTHER OBSERVATIONS NORTHEAST NORTH DAKOTA  *****

CITY           SKY/WX    TMP DP  RH WIND       PRES   REMARKS
WALHALLA       FAIR      84  73  70 MISG      29.76F HX  91
LANGDON        FAIR      82  72  69 SE17G24   29.78F
CAVALIER       FAIR      84  72  65 SE13G21   29.76F
GRAFTON        FAIR      86  72  62 SE18      29.78F HX  92
CANDO          FAIR      82  72  69 SE21G28   29.75S
FORT TOTTEN      N/A     84  70  62 SE12      29.95
ROLLA            N/A     81  70  69 SE20G29   29.76F
RUGBY          NOT AVBL
 ***** THE ABOVE OBSERVATIONS ARE NON NWS ARE NOT QUALITY
        CONTROLLED AND MAY MIS-REPORT RAIN FOR SNOW...
$$

 *****  OTHER OBSERVATIONS SOUTHEAST NORTH DAKOTA *****

CITY           SKY/WX    TMP DP  RH WIND       PRES   REMARKS
COOPERSTOWN    NOT AVBL
VALLEY CITY    MOCLDY    88  75  66 SE20G28   29.77F HX  97
OAKES            N/A     91  77  62 SE16G23   29.75F HX 105
GWINNER        FAIR      88  77  70 SE20G25   29.77F HX 100
SHEYENNE NWR     N/A     88  72  58 SE15      29.95  HX  94
BUFFALO        NOT AVBL
WYNDMERE         N/A     88  73  62 SE13        N/A  HX  96
 ***** THE ABOVE OBSERVATIONS ARE NON NWS ARE NOT QUALITY
       CONTROLLED AND MAY MIS-REPORT RAIN FOR SNOW...
$$

  *****  WEATHER ACROSS NORTHERN MINNESOTA  *****

CITY           SKY/WX    TMP DP  RH WIND       PRES   REMARKS
FLAG ISLAND    SUNNY     82  70  65 S6        29.85F
WARROAD        MOSUNNY   88  72  58 SE8       29.85F HX  94
ROSEAU         SUNNY     84  73  70 S9        29.84F HX  91
HALLOCK        SUNNY     88  70  55 SE15      29.78F HX  92
THF RVR FALLS  CLOUDY    81  72  74 SE9       29.84F
HALSTAD        NOT AVBL
FOSSTON        CLOUDY    81  68  65 S9        29.86F
BAUDETTE       MOSUNNY   87  65  47 S8        29.87F
WASKISH        MOSUNNY   86  70  58 SE9       29.87F HX  90
CROOKSTON      PTSUNNY   81  75  83 SE9       29.81F
$$
  *****  WEATHER ACROSS CENTRAL AND WEST MINNESOTA  *****

CITY           SKY/WX    TMP DP  RH WIND       PRES   REMARKS
BEMIDJI        PTSUNNY   82  70  66 SE10      29.88F
PARK RAPIDS    PTSUNNY   89  68  49 SE18      29.88F HX  93
WADENA         MOSUNNY   88  68  51 SE13      29.87F HX  91
DETROIT LAKES  PTSUNNY   88  66  48 S15       29.86F HX  90
MOORHEAD       MOSUNNY   88  72  58 SE13      29.79F HX  94
FERGUS FALLS   SUNNY     86  72  62 S17       29.81F HX  92
ELBOW LAKE     FAIR      84  72  65 SE16G24   29.84F HX  90
MORRIS MN      MOSUNNY   84  73  70 SE15      29.83F HX  91
STAPLES        SUNNY     84  68  58 S9G18     29.88F
WHEATON        SUNNY     82  73  74 SE20      29.81F
$$
  *****  WEATHER ELSEWHERE ACROSS MINNESOTA  *****

CITY           SKY/WX    TMP DP  RH WIND       PRES   REMARKS
DULUTH         MOSUNNY   84  63  49 SE10      29.95F
INTRNTL FALLS  MOSUNNY   87  65  47 SE9       29.89F
ELY            SUNNY     88  54  31 S7G20     29.94F
CLOQUET        MOSUNNY   82  63  51 SE9       29.94F
BRAINERD       PTSUNNY   84  69  60 S10G18    29.90F
HIBBING        MOSUNNY   85  65  51 VRB7      29.93F
ALEXANDRIA     MOSUNNY   85  70  60 S15       29.89F
SAINT CLOUD    MOSUNNY   87  71  58 S13       29.88F HX  93
MINNEAPOLIS    FAIR      84  71  65 SE13      29.90F
$$

  *****  WEATHER ACROSS SOUTH DAKOTA  *****

CITY           SKY/WX    TMP DP  RH WIND       PRES   REMARKS
SIOUX FALLS    FAIR      85  71  63 S14       29.81F HX  90
BROOKINGS      FAIR      84  70  61 SE16      29.84F
WATERTOWN      FAIR      87  70  56 S17       29.82F HX  92
HURON          MOSUNNY   88  70  55 SE17G28   29.74F HX  93
SISSETON         N/A     85  75  72 SE16      29.79F HX  93
ABERDEEN       SUNNY     91  73  55 SE20G25   29.74F HX  99
MITCHELL       MOSUNNY   87  76  69 S20G28    29.76F HX  97
PIERRE         SUNNY     95  65  37 SE28G36   29.65F HX  97
MOBRIDGE       SUNNY     94  67  41 SE24      29.66F HX  97
RAPID CITY     MOSUNNY   93  64  38 S13G22    29.64F HX  94
$$

  *****  SOME WEATHER IN NEARBY STATES *****

CITY           SKY/WX    TMP DP  RH WIND       PRES   REMARKS
GLASGOW MT     CLOUDY    78  59  51 N14       29.63F
GREAT FALLS MT LGT RAIN  55  51  86 W7        29.96S
CHEYENNE WY    MOSUNNY   90  45  21 S20G25    29.89F
SCOTTSBLUFF NE SUNNY     92  59  33 SE14G25   29.73F HX  91
OMAHA NE       PTSUNNY   90  73  57 SE16      29.84F HX  98
DES MOINES IA  LGT RAIN  73  68  84 E10       29.95F
DAVENPORT IA   FAIR      83  71  67 E9        29.96F
CHICAGO IL     PTSUNNY   85  62  46 E13       29.97F
EAU CLAIRE WI  FAIR      84  65  52 SE14      29.95F
LA CROSSE WI   FAIR      86  68  54 S13       29.94F
$$

  *****  SOME NATIONAL WEATHER *****

CITY           SKY/WX    TMP DP  RH WIND       PRES   REMARKS
LA GUARDIA NY  PTSUNNY   83  65  54 S18       29.97F
RALEIGH NC     PTSUNNY   87  73  62 SE6       29.97R HX  94
ATLANTA GA     PTSUNNY   85  70  60 NE13      29.98R
NEW ORLEANS LA PTSUNNY   91  70  49 S10       29.93F HX  96
OKLAHOMA CITY  FAIR      94  69  44 S16G22    29.89F HX  99
ALBUQUERQUE NM MOSUNNY   90  48  23 VRB5      30.06F
SALT LAKE CITY MOSUNNY   75  42  30 NW15      30.04S
LOS ANGELES CA MOSUNNY   74  61  63 W13       29.91F
BOISE ID       MOSUNNY   73  32  22 NW17G30   30.05R
SEATTLE WA     MOSUNNY   71  50  47 W6        30.22S
$$

*** WEATHER ACROSS MANITOBA...SASKATCHEWAN AND ONTARIO ***
                ***ONTARIO***

CITY           SKY/WX    TMP DP  RH WIND       PRES   REMARKS
GERALDTON      PTSUNNY   88  63  42 W7        29.92F
THUNDER BAY    MOSUNNY   88  59  37 S15       29.94F
SIOUX LOOKOUT  PTSUNNY   88  63  42 W7        29.90F
TORONTO        MOSUNNY   86  59  39 S9        29.97F
BIG TROUT LK   SUNNY     84  59  42 NW10G17   29.78S
PICKLE LAKE    PTSUNNY   88  64  45 SW9G20    29.86F
DRYDEN         SUNNY     88  55  33 S10       29.90F
KENORA         MOSUNNY   86  64  48 S8        29.89F
$$
                *** MANITOBA***

CITY           SKY/WX    TMP DP  RH WIND       PRES   REMARKS
BRANDON        PTSUNNY   86  70  58 SE14G21   29.77F HX  90
DAUPHIN        CLOUDY    77  66  69 N12       29.84F
ISLAND LAKE    MOSUNNY   82  57  42 W5        29.85R
PILOT MOUND      N/A     81  70  69 SE17G23     N/A
THE PAS        CLOUDY    73  55  53 S9        29.89S
THOMPSON       PTSUNNY   79  52  38 W12       29.81S
WINNIPEG       PTSUNNY   84  70  61 SE17      29.78F
LYNN LAKE      SUNNY     77  48  36 W7        29.80F
CHURCHILL      PTSUNNY   66  61  82 E12       29.67F
GILLAM         MOSUNNY   77  59  53 W9        29.78R
$$
                ***SASKATCHEWAN***

CITY           SKY/WX    TMP DP  RH WIND       PRES   REMARKS
ESTEVAN        PTSUNNY   84  68  58 E14G21    29.67F
KINDERSLEY     LGT RAIN  63  59  88 NE9       29.86R
LLOYDMINSTER   CLOUDY    64  54  68 NW10      29.91F
PRINCE ALBERT  CLOUDY    70  59  68 SE5       29.88S
REGINA         PTSUNNY   66  55  68 E22G35    29.73F


USA.gov is the U.S. government's official web portal to all federal, state and local government web resources and services.